Location: Liscomb Game Sanctuary
(45.1633°N, 62.5575°W)
Time: 14:53:21
(UTC-03:00)

Daily predictions for brighter satellites

Satellite Brightness Start Highest point End
(mag) Time Altitude Azimuth Time Altitude Azimuth Time Altitude Azimuth
Sich 1 Rocket 3.7 21:04:45 10° S 21:09:16 62° E 21:13:48 10° NNE
ERS-1 Rocket 3.0 21:05:42 10° SSE 21:10:43 72° ENE 21:15:45 10° N
Cosmos 2084 3.3 21:07:06 10° SSW 21:10:50 52° SE 21:14:35 10° NE
Cosmos 407 Rocket 3.9 21:08:41 10° NNW 21:13:57 69° WSW 21:19:13 10° S
Cosmos 1140 Rocket 3.9 21:09:26 10° NNW 21:14:26 49° ENE 21:19:25 10° SE
COSMOS 2487 2.7 21:12:46 10° NNW 21:16:22 60° ENE 21:19:56 10° SSE
Cosmos 1975 Rocket 3.7 21:12:31 10° N 21:16:34 37° ENE 21:20:36 10° SE
Coronas F rocket 4.1 21:21:15 10° SW 21:23:24 22° WNW 21:25:34 10° NNW
Terra 4.0 21:24:26 10° ENE 21:25:58 11° ENE 21:27:29 10° NE
Cosmos 1378 Rocket 3.5 21:21:44 10° N 21:26:04 72° E 21:30:23 10° SSE
Cosmos 1908 Rocket 3.5 21:24:10 10° S 21:28:34 77° E 21:33:02 10° NNE
Cosmos 1733 Rocket 4.2 21:24:30 10° SSW 21:28:45 48° WNW 21:33:01 10° N
Cosmos 2341 Rocket 4.1 21:23:34 10° S 21:29:43 58° E 21:35:50 10° NNE
Cosmos 1452 Rocket 3.5 21:24:46 10° SSW 21:30:02 81° ESE 21:35:20 10° NNE
Cosmos 1606 2.9 21:27:26 10° NNW 21:31:23 76° W 21:35:17 10° S
Cosmos 1238 Rocket 2.5 21:29:47 10° N 21:33:06 70° E 21:37:00 10° SSE
ISS -3.4 21:30:21 10° SW 21:33:35 75° SSE 21:36:51 10° ENE
H-2A R/B 3.8 21:31:05 10° ESE 21:34:40 19° ENE 21:38:13 10° NNE
Cosmos 1862 3.3 21:32:53 10° S 21:36:57 82° E 21:41:03 10° N
SPOT 5 3.2 21:35:16 10° SSE 21:40:31 67° ENE 21:45:52 10° N
deb Chang Zheng 4 3.6 21:37:12 10° NNE 21:41:39 71° ESE 21:46:04 10° S
Meteor 1-27 Rocket 4.0 21:36:40 10° NNW 21:42:12 68° W 21:47:39 10° S
Timation 2 Rocket 3.9 21:37:30 10° NNW 21:43:33 81° ENE 21:49:08 12° SSE
Gbstr 26 Del rocket 4.1 21:38:57 10° WNW 21:44:22 48° NNE 21:48:46 10° E
Cosmos 1184 Rocket 2.7 21:41:47 10° S 21:45:05 75° E 21:48:27 10° NNE
CZ-3C R/B 4.3 21:34:58 10° SW 21:49:41 17° SSW 21:55:44 10° SSE
SPOT 1/Viking Rocket 4.0 21:45:33 13° SE 21:49:56 47° ENE 21:54:57 10° N
ARGOS 3.7 21:46:17 13° SE 21:50:38 43° ENE 21:55:42 10° N
USA 245 4.0 21:48:25 16° SE 21:50:59 41° ENE 21:55:09 10° N
Lacrosse 5 3.8 21:52:51 11° E 21:52:51 11° E 21:53:31 10° E
Cosmos 2154 Rocket 4.2 21:46:59 10° SSW 21:53:12 76° W 21:59:25 10° N
Abrixas 4.2 21:51:13 10° S 21:52:48 17° SSE 21:52:48 17° SSE
Cosmos 1242 Rocket 2.5 21:50:19 10° N 21:54:00 80° E 21:57:10 14° SSE
USA 229 DEB 3.9 21:49:52 10° NW 21:56:59 70° NE 22:02:48 16° SE
USA 229 3.9 21:49:58 10° NW 21:57:05 69° NE 22:02:54 16° SE
H-2A R/B 2.5 21:53:13 10° S 21:57:27 60° WSW 22:01:37 10° NNW
Cosmos 1850 Rocket 4.0 21:54:36 10° NNW 21:59:58 89° ENE 22:04:29 15° SSE
YAOGAN 6 2.5 21:58:54 17° SSE 22:01:28 71° ENE 22:05:00 10° N
Cosmos 2151 Rocket 4.2 21:59:20 16° SSE 22:02:32 39° E 22:06:46 10° NNE
Cosmos 1408 3.4 22:00:38 10° SSW 22:04:12 51° WNW 22:07:46 10° N
Okean 3 4.3 22:04:36 10° NNW 22:08:45 49° W 22:12:50 10° SSW
COS B Rocket 4.4 22:06:11 10° NNW 22:09:59 42° W 22:13:23 10° SSW
MetOp-A 4.3 22:10:51 12° S 22:15:47 73° WSW 22:21:10 10° NNW
Cosmos 1833 Rocket 2.7 22:10:13 10° NNW 22:15:51 71° ENE 22:19:34 22° SE
Cosmos 2366 rocket 4.1 22:12:39 13° S 22:18:16 60° E 22:24:31 10° NNE
NOSS 1 (D) 4.5 22:16:27 10° NW 22:19:33 83° NE 22:20:37 37° SE
Okean 1 Rocket 4.4 22:19:06 21° ESE 22:20:09 22° E 22:23:37 10° NE
Cosmos 1825 3.9 22:17:45 10° SW 22:21:13 33° WNW 22:24:44 10° N
Cosmos 1741 Rocket 4.3 22:16:20 10° NNW 22:21:31 62° WSW 22:25:30 17° S
Cosmos 2278 Rocket 3.1 22:18:01 10° SW 22:23:34 53° WNW 22:29:08 10° NNE
SL-8 R/B 4.3 22:22:36 10° W 22:27:22 57° N 22:32:07 10° E
Cosmos 1331 Rocket 4.5 22:25:31 24° SSE 22:27:57 38° ESE 22:32:41 10° NE
Meteor 1-25 Rocket 4.4 22:24:41 19° SSE 22:28:51 56° E 22:34:31 10° NNE
CZ-4 R/B 3.9 22:24:56 10° NNE 22:29:31 55° E 22:32:12 24° S
Okean 2 Rocket 4.2 22:29:47 10° SSW 22:34:01 44° WNW 22:38:14 10° N
Cosmos 1110 Rocket 4.1 22:33:14 22° S 22:36:28 52° ESE 22:41:30 10° NNE
Okean 1 3.7 22:33:41 10° N 22:37:39 48° ENE 22:38:53 35° SE
Cosmos 2082 Rocket 2.5 22:35:50 10° NNW 22:41:28 60° WSW 22:44:57 23° S
NOSS 3-1 (C) 4.3 22:37:00 10° NW 22:44:19 60° NE 22:49:37 23° ESE
SL-08 RB Rocket 3.8 22:43:28 27° S 22:45:58 73° WSW 22:50:39 10° NNW
Landsat 7 3.7 22:44:59 32° SSE 22:47:13 82° ENE 22:52:00 10° NNW
Meteor 1-18 Rocket 4.4 22:41:31 10° NNW 22:47:27 81° W 22:51:08 25° S
Cosmos 2218 Rocket 4.2 22:42:17 10° SSW 22:48:40 74° W 22:55:06 10° N
Cosmos 1812 2.6 22:47:07 10° N 22:51:00 82° E 22:52:04 46° SSE
Meteor 2-19 Rocket 4.4 22:49:05 21° S 22:53:20 81° E 22:59:28 10° N
USA 234 3.8 22:49:16 10° ENE 22:55:04 33° SE 22:56:42 29° SSE
CARTOSAT-1 3.5 22:55:37 43° SSE 22:56:58 74° ENE 23:01:18 10° N
Cosmos 1727 Rocket 4.2 22:54:00 10° NNW 23:00:09 70° W 23:04:02 24° S
Genesis I 4.3 23:02:11 31° E 23:02:11 31° E 23:04:50 10° NE
Cosmos 1486 Rocket 4.0 22:57:01 10° NNW 23:02:22 73° ENE 23:04:20 39° SE
Terra 1.7 23:01:13 40° SSE 23:02:55 82° ENE 23:07:42 10° NNW
Meteor 1-13 Rocket 4.4 22:58:37 10° N 23:04:33 66° ENE 23:06:58 36° SE
AVUM R/B 4.4 23:01:23 10° NW 23:04:38 36° WSW 23:05:10 34° SW
CZ-4B R/B 4.1 23:00:03 10° N 23:04:51 53° WNW 23:09:18 11° SW
Cosmos 1536 Rocket 4.5 23:03:04 10° NNW 23:07:21 45° W 23:09:31 25° SSW
DELTA 2 DEB (DPAF) 4.4 23:07:41 37° SSW 23:09:19 62° WSW 23:13:46 10° NNW
ISS -1.4 23:07:18 10° WNW 23:10:15 30° NNW 23:13:12 10° NE
H-2A R/B 2.2 23:11:12 34° S 23:13:33 71° WSW 23:18:50 10° NNW
Cosmos 2084 Rocket 4.5 23:10:33 10° NNW 23:14:06 33° NE 23:15:06 29° ENE
Spot 2 4.2 23:11:06 10° NNE 23:15:17 48° E 23:15:21 48° ESE
BREEZE-M DEB (TANK) 3.1 23:14:37 10° WNW 23:16:52 40° NNE 23:21:42 10° E
Cosmos 1356 4.3 23:17:59 40° ENE 23:17:59 40° ENE 23:20:42 10° NNE
Cosmos 1315 Rocket 4.4 23:19:29 23° ENE 23:19:29 23° ENE 23:21:52 10° NE
Spot 4 3.8 23:19:28 48° SSE 23:20:49 89° WSW 23:25:42 10° NNW
Meteor 1-11 Rocket 3.8 23:19:08 42° SSE 23:20:59 61° E 23:26:39 10° NNE
Lacrosse 5 rocket 1.6 23:21:56 48° ENE 23:21:56 48° ENE 23:24:44 10° NE
Cosmos 1892 Rocket 4.4 23:17:40 10° N 23:21:41 34° ENE 23:22:01 34° E
IGS 5A 3.7 23:25:17 50° SSW 23:26:04 61° W 23:30:12 10° NNW
Cosmos 2369 Rocket 2.6 23:29:37 42° ESE 23:30:02 42° ESE 23:35:18 10° NE
Cosmos 1302 Rocket 3.9 23:29:31 44° S 23:31:12 81° ESE 23:36:32 10° NNE
Gbstr 26 Del rocket 3.1 23:26:40 10° WNW 23:31:32 59° SW 23:31:42 58° SSW
Okean 2 4.4 23:27:45 10° N 23:31:35 34° ENE 23:31:35 34° ENE
Lacrosse 5 1.7 23:31:52 41° SSW 23:33:35 70° SE 23:38:40 10° NE
Cosmos 1821 Rocket 3.9 23:32:24 43° SSE 23:34:31 71° E 23:40:42 10° NNE
Cosmos 1633 3.4 23:35:18 42° NE 23:35:18 42° NE 23:38:09 10° NNE
Cosmos 1025 Rocket 2.9 23:33:49 10° N 23:38:15 79° E 23:38:34 73° SE
Meteor 2-21 4.4 23:40:42 42° S 23:43:00 88° E 23:49:16 10° N
Cosmos 1934 Rocket 3.9 23:42:04 48° SSE 23:43:41 69° E 23:49:42 10° NNE
Meteor 1-23 Rocket 4.2 23:38:07 10° N 23:43:42 69° ENE 23:44:53 53° SE
Cosmos 2285 Rocket 4.0 23:45:04 47° SSE 23:46:44 64° ESE 23:53:04 10° NNE
Cosmos 1809 Rocket 4.4 23:45:27 41° SSW 23:47:48 85° W 23:54:03 10° N
Meteor 1-19 Rocket 4.3 23:42:09 10° NNW 23:48:01 77° W 23:49:38 49° S
Cosmos 1400 Rocket 2.8 23:49:30 82° W 23:49:30 82° W 23:53:41 10° N
Cosmos 1455 Rocket 4.0 23:50:24 36° ENE 23:50:24 36° ENE 23:53:51 10° NNE
ASTEX 1 3.8 23:45:07 10° N 23:50:00 57° W 23:51:33 39° SW
Cosmos 2123 Rocket 4.0 23:44:19 10° N 23:50:37 75° E 23:52:18 50° SSE
Iridium 4 Rocket 3.7 23:44:51 10° N 23:50:48 90° WSW 23:52:22 52° S
Cosmos 1536 2.8 23:53:09 76° N 23:53:09 76° N 23:56:50 10° N
